| time (UTC) | temp F | wind direction | speed knots | gust knots | rain 1hr in | rain 24hr in | rain mn in | humidity % | barometer mb |
| 20260510164336 | 82 | 303 | 4.3 | 4.3 | 0.00 | 0.00 | 0.00 | 49 | 1014.1 |
| 20260510163835 | 82 | 283 | 1.7 | 3.5 | 0.00 | 0.00 | 0.00 | 49 | 1013.9 |
| 20260510163332 | 81 | 315 | 1.7 | 6.1 | 0.00 | 0.00 | 0.00 | 52 | 1014.0 |
| 20260510162826 | 81 | 291 | 2.6 | 4.3 | 0.00 | 0.00 | 0.00 | 51 | 1014.2 |
| 20260510162324 | 82 | 15 | 0.0 | 4.3 | 0.00 | 0.00 | 0.00 | 50 | 1014.0 |
| 20260510161819 | 80 | 304 | 0.0 | 6.1 | 0.00 | 0.00 | 0.00 | 50 | 1014.1 |
| 20260510161315 | 80 | 300 | 2.6 | 4.3 | 0.00 | 0.00 | 0.00 | 54 | 1014.1 |
| 20260510160812 | 81 | 290 | 2.6 | 4.3 | 0.00 | 0.00 | 0.00 | 52 | 1014.2 |
| 20260510160309 | 79 | 29 | 0.9 | 5.2 | 0.00 | 0.00 | 0.00 | 55 | 1014.2 |
| 20260510155803 | 79 | 250 | 1.7 | 6.1 | 0.00 | 0.00 | 0.00 | 55 | 1014.6 |
| 20260510155300 | 80 | 291 | 0.9 | 4.3 | 0.00 | 0.00 | 0.00 | 53 | 1014.4 |
| 20260510154755 | 81 | 300 | 0.9 | 4.3 | 0.00 | 0.00 | 0.00 | 54 | 1014.6 |
| 20260510154252 | 81 | 346 | 1.7 | 2.6 | 0.00 | 0.00 | 0.00 | 54 | 1014.4 |
| 20260510153746 | 81 | 345 | 0.0 | 3.5 | 0.00 | 0.00 | 0.00 | 55 | 1014.2 |
| 20260510153242 | 80 | 342 | 0.9 | 2.6 | 0.00 | 0.00 | 0.00 | 57 | 1014.6 |
| 20260510152739 | 79 | 287 | 4.3 | 5.2 | 0.00 | 0.00 | 0.00 | 57 | 1014.3 |
| 20260510152236 | 79 | 278 | 0.9 | 2.6 | 0.00 | 0.00 | 0.00 | 58 | 1014.2 |
| 20260510151732 | 79 | 266 | 2.6 | 3.5 | 0.00 | 0.00 | 0.00 | 60 | 1014.5 |
| 20260510151231 | 80 | 239 | 0.0 | 3.5 | 0.00 | 0.00 | 0.00 | 59 | 1014.5 |
| 20260510150726 | 79 | 315 | 1.7 | 3.5 | 0.00 | 0.00 | 0.00 | 60 | 1014.4 |
| 20260510150222 | 78 | 355 | 1.7 | 3.5 | 0.00 | 0.00 | 0.00 | 60 | 1014.2 |
| 20260510145718 | 78 | 237 | 1.7 | 4.3 | 0.00 | 0.00 | 0.00 | 63 | 1014.4 |
| 20260510145215 | 78 | 270 | 0.9 | 3.5 | 0.00 | 0.00 | 0.00 | 65 | 1014.3 |
| 20260510144711 | 79 | 238 | 0.0 | 3.5 | 0.00 | 0.00 | 0.00 | 65 | 1014.3 |
| 20260510144208 | 78 | 294 | 0.0 | 3.5 | 0.00 | 0.00 | 0.00 | 62 | 1014.2 |
| 20260510143703 | 77 | 309 | 2.6 | 2.6 | 0.00 | 0.00 | 0.00 | 62 | 1014.1 |
| 20260510143200 | 76 | 270 | 0.0 | 3.5 | 0.00 | 0.00 | 0.00 | 62 | 1014.3 |
| 20260510142656 | 77 | 20 | 0.0 | 2.6 | 0.00 | 0.00 | 0.00 | 65 | 1014.3 |
| 20260510142152 | 76 | 280 | 0.0 | 2.6 | 0.00 | 0.00 | 0.00 | 66 | 1014.0 |
| 20260510141650 | 75 | 0 | 0.9 | 2.6 | 0.00 | 0.00 | 0.00 | 64 | 1014.1 |
| 20260510141148 | 74 | 289 | 2.6 | 4.3 | 0.00 | 0.00 | 0.00 | 67 | 1013.9 |
| 20260510140644 | 73 | 297 | 2.6 | 2.6 | 0.00 | 0.00 | 0.00 | 66 | 1014.0 |
| 20260510140143 | 73 | 309 | 1.7 | 3.5 | 0.00 | 0.00 | 0.00 | 68 | 1014.0 |
| 20260510135638 | 73 | 307 | 1.7 | 3.5 | 0.00 | 0.00 | 0.00 | 69 | 1014.2 |
| 20260510135135 | 73 | 289 | 1.7 | 2.6 | 0.00 | 0.00 | 0.00 | 70 | 1014.0 |
| 20260510134632 | 73 | 319 | 1.7 | 2.6 | 0.00 | 0.00 | 0.00 | 69 | 1013.9 |
| 20260510134129 | 74 | 331 | 0.0 | 1.7 | 0.00 | 0.00 | 0.00 | 64 | 1014.0 |
| 20260510133626 | 73 | 180 | 0.0 | 1.7 | 0.00 | 0.00 | 0.00 | 68 | 1014.3 |
| 20260510133121 | 74 | 254 | 0.0 | 2.6 | 0.00 | 0.00 | 0.00 | 67 | 1014.1 |
| 20260510132618 | 73 | 336 | 1.7 | 3.5 | 0.00 | 0.00 | 0.00 | 67 | 1013.9 |
| 20260510132115 | 73 | 277 | 2.6 | 2.6 | 0.00 | 0.00 | 0.00 | 69 | 1014.1 |
| 20260510131612 | 73 | 5 | 0.0 | 1.7 | 0.00 | 0.00 | 0.00 | 70 | 1014.0 |
| 20260510131110 | 72 | 240 | 0.0 | 2.6 | 0.00 | 0.00 | 0.00 | 72 | 1013.9 |
| 20260510130606 | 71 | 280 | 3.5 | 3.5 | 0.00 | 0.00 | 0.00 | 73 | 1014.2 |
| 20260510130104 | 71 | 330 | 0.0 | 2.6 | 0.00 | 0.00 | 0.00 | 73 | 1013.9 |
| 20260510125600 | 71 | 346 | 0.9 | 1.7 | 0.00 | 0.00 | 0.00 | 74 | 1014.1 |
| 20260510125056 | 71 | 131 | 0.0 | 1.7 | 0.00 | 0.00 | 0.00 | 74 | 1014.3 |
| 20260510124553 | 70 | 345 | 0.0 | 0.9 | 0.00 | 0.00 | 0.00 | 74 | 1014.1 |
| 20260510124050 | 69 | 352 | 0.0 | 3.5 | 0.00 | 0.00 | 0.00 | 75 | 1014.1 |
| 20260510123545 | 70 | 352 | 0.0 | 2.6 | 0.00 | 0.00 | 0.00 | 75 | 1013.9 |
| 20260510123041 | 70 | 249 | 0.0 | 1.7 | 0.00 | 0.00 | 0.00 | 74 | 1013.9 |
| 20260510122537 | 69 | 281 | 0.0 | 2.6 | 0.00 | 0.00 | 0.00 | 78 | 1014.0 |
| 20260510122033 | 69 | 303 | 0.0 | 1.7 | 0.00 | 0.00 | 0.00 | 77 | 1013.7 |
| 20260510121531 | 68 | 250 | 0.0 | 1.7 | 0.00 | 0.00 | 0.00 | 79 | 1013.8 |
| 20260510121028 | 67 | 157 | 0.0 | 0.0 | 0.00 | 0.00 | 0.00 | 82 | 1013.7 |
| 20260510120525 | 66 | 166 | 0.0 | 1.7 | 0.00 | 0.00 | 0.00 | 85 | 1013.6 |
| 20260510120021 | 65 | 157 | 0.0 | 1.7 | 0.00 | 0.00 | 0.00 | 85 | 1013.8 |
| 20260510115518 | 64 | 151 | 0.0 | 0.0 | 0.00 | 0.00 | 0.00 | 89 | 1013.6 |
| 20260510115014 | 62 | 151 | 0.0 | 0.0 | 0.00 | 0.00 | 0.00 | 95 | 1013.6 |
| 20260510114510 | 61 | 0 | 0.0 | 0.0 | 0.00 | 0.00 | 0.00 | 99 | 1013.2 |
| 20260510114007 | 59 | 0 | 0.0 | 0.0 | 0.00 | 0.00 | 0.00 | 99 | 1013.5 |
| 20260510113502 | 57 | 0 | 0.0 | 1.7 | 0.00 | 0.00 | 0.00 | 99 | 1013.2 |
| 20260510113000 | 57 | 160 | 0.0 | 0.0 | 0.00 | 0.00 | 0.00 | 99 | 1013.4 |
| 20260510112457 | 57 | 148 | 0.0 | 1.7 | 0.00 | 0.00 | 0.00 | 99 | 1013.1 |
| 20260510111953 | 56 | 29 | 0.0 | 1.7 | 0.00 | 0.00 | 0.00 | 99 | 1013.2 |
| 20260510111449 | 55 | 0 | 0.0 | 0.9 | 0.00 | 0.00 | 0.00 | 99 | 1013.2 |
| 20260510110945 | 55 | 120 | 0.0 | 0.9 | 0.00 | 0.00 | 0.00 | 99 | 1013.0 |
| 20260510110442 | 54 | 120 | 0.0 | 1.7 | 0.00 | 0.00 | 0.00 | 99 | 1013.1 |
| 20260510105937 | 54 | 144 | 1.7 | 1.7 | 0.00 | 0.00 | 0.00 | 99 | 1012.9 |
| 20260510105433 | 53 | 157 | 0.0 | 0.0 | 0.00 | 0.00 | 0.00 | 99 | 1012.9 |
| 20260510104929 | 53 | 165 | 0.0 | 1.7 | 0.00 | 0.00 | 0.00 | 99 | 1012.7 |
| 20260510104426 | 53 | 151 | 0.0 | 1.7 | 0.00 | 0.00 | 0.00 | 99 | 1012.7 |
| 20260510103922 | 53 | 120 | 0.0 | 0.0 | 0.00 | 0.00 | 0.00 | 99 | 1012.7 |
| 20260510103420 | 53 | 126 | 0.0 | 0.9 | 0.00 | 0.00 | 0.00 | 99 | 1012.8 |
| 20260510102914 | 52 | 264 | 0.0 | 0.0 | 0.00 | 0.00 | 0.00 | 99 | 1012.4 |
| 20260510102410 | 52 | 154 | 0.9 | 1.7 | 0.00 | 0.00 | 0.00 | 99 | 1012.4 |
| 20260510101902 | 52 | 132 | 0.0 | 1.7 | 0.00 | 0.00 | 0.00 | 99 | 1012.4 |
| 20260510101400 | 52 | 135 | 0.0 | 1.7 | 0.00 | 0.00 | 0.00 | 99 | 1012.4 |
| 20260510100856 | 52 | 99 | 0.0 | 1.7 | 0.00 | 0.00 | 0.00 | 99 | 1012.4 |
| 20260510100354 | 53 | 139 | 1.7 | 1.7 | 0.00 | 0.00 | 0.00 | 99 | 1012.7 |
| 20260510095850 | 53 | 120 | 0.0 | 0.0 | 0.00 | 0.00 | 0.00 | 99 | 1012.3 |
| 20260510095345 | 53 | 139 | 0.0 | 1.7 | 0.00 | 0.00 | 0.00 | 99 | 1012.3 |
| 20260510094844 | 53 | 131 | 0.0 | 2.6 | 0.00 | 0.00 | 0.00 | 99 | 1012.3 |
| 20260510094340 | 54 | 109 | 0.0 | 1.7 | 0.00 | 0.00 | 0.00 | 99 | 1012.1 |
| 20260510093836 | 54 | 98 | 0.0 | 0.9 | 0.00 | 0.00 | 0.00 | 99 | 1012.1 |
| 20260510093332 | 54 | 99 | 0.0 | 0.0 | 0.00 | 0.00 | 0.00 | 99 | 1011.9 |
| 20260510092829 | 54 | 99 | 0.0 | 0.0 | 0.00 | 0.00 | 0.00 | 99 | 1011.9 |
| 20260510092324 | 54 | 114 | 0.0 | 0.0 | 0.00 | 0.00 | 0.00 | 99 | 1011.7 |
| 20260510091820 | 53 | 114 | 0.0 | 0.0 | 0.00 | 0.00 | 0.00 | 99 | 1012.0 |
| 20260510091318 | 53 | 114 | 0.9 | 0.9 | 0.00 | 0.00 | 0.00 | 99 | 1011.9 |
| 20260510090814 | 53 | 111 | 0.0 | 1.7 | 0.00 | 0.00 | 0.00 | 99 | 1011.7 |
| 20260510090311 | 53 | 145 | 0.0 | 0.0 | 0.00 | 0.00 | 0.00 | 99 | 1011.8 |
| 20260510085807 | 53 | 145 | 0.9 | 0.9 | 0.00 | 0.00 | 0.00 | 99 | 1011.6 |
| 20260510085301 | 53 | 151 | 0.0 | 0.0 | 0.00 | 0.00 | 0.00 | 99 | 1011.6 |
| 20260510084757 | 53 | 151 | 0.0 | 1.7 | 0.00 | 0.00 | 0.00 | 99 | 1011.7 |
| 20260510084254 | 54 | 145 | 0.0 | 0.0 | 0.00 | 0.00 | 0.00 | 99 | 1011.5 |
| 20260510083751 | 54 | 145 | 0.0 | 1.7 | 0.00 | 0.00 | 0.00 | 99 | 1011.7 |
| 20260510083248 | 54 | 148 | 0.0 | 1.7 | 0.00 | 0.00 | 0.00 | 99 | 1011.4 |
| 20260510082743 | 55 | 106 | 0.0 | 0.0 | 0.00 | 0.00 | 0.00 | 99 | 1011.5 |
| 20260510082240 | 54 | 120 | 0.0 | 0.0 | 0.00 | 0.00 | 0.00 | 99 | 1011.6 |
| 20260510081739 | 54 | 157 | 0.0 | 0.0 | 0.00 | 0.00 | 0.00 | 99 | 1011.5 |
| 20260510081236 | 55 | 157 | 0.9 | 1.7 | 0.00 | 0.00 | 0.00 | 99 | 1011.5 |
| 20260510080731 | 55 | 144 | 0.0 | 1.7 | 0.00 | 0.00 | 0.00 | 99 | 1011.2 |
| 20260510080227 | 55 | 81 | 0.0 | 0.0 | 0.00 | 0.00 | 0.00 | 99 | 1011.2 |
| 20260510075723 | 55 | 120 | 0.0 | 1.7 | 0.00 | 0.00 | 0.00 | 99 | 1011.2 |
| 20260510075221 | 55 | 172 | 0.0 | 0.0 | 0.00 | 0.00 | 0.00 | 99 | 1011.1 |
| 20260510074718 | 55 | 172 | 0.0 | 1.7 | 0.00 | 0.00 | 0.00 | 99 | 1011.0 |
| 20260510074215 | 56 | 98 | 0.0 | 0.9 | 0.00 | 0.00 | 0.00 | 99 | 1010.9 |
| 20260510073711 | 56 | 148 | 0.0 | 1.7 | 0.00 | 0.00 | 0.00 | 99 | 1011.0 |
| 20260510073207 | 56 | 173 | 0.0 | 0.9 | 0.00 | 0.00 | 0.00 | 99 | 1011.0 |
| 20260510072703 | 56 | 261 | 1.7 | 2.6 | 0.00 | 0.00 | 0.00 | 99 | 1011.0 |
| 20260510072200 | 57 | 114 | 0.0 | 0.0 | 0.00 | 0.00 | 0.00 | 99 | 1010.7 |
| 20260510071656 | 56 | 246 | 0.0 | 1.7 | 0.00 | 0.00 | 0.00 | 98 | 1010.9 |
| 20260510071153 | 56 | 151 | 0.0 | 1.7 | 0.00 | 0.00 | 0.00 | 98 | 1010.9 |
| 20260510070650 | 57 | 114 | 0.0 | 0.0 | 0.00 | 0.00 | 0.00 | 98 | 1010.9 |
| 20260510070148 | 57 | 270 | 0.0 | 0.0 | 0.00 | 0.00 | 0.00 | 98 | 1010.8 |
| 20260510065643 | 57 | 270 | 0.0 | 0.0 | 0.00 | 0.00 | 0.00 | 98 | 1010.8 |
| 20260510065139 | 57 | 270 | 0.0 | 0.9 | 0.00 | 0.00 | 0.00 | 98 | 1010.7 |
| 20260510064636 | 57 | 157 | 0.0 | 0.0 | 0.00 | 0.00 | 0.00 | 98 | 1010.7 |
| 20260510064133 | 57 | 114 | 0.0 | 0.0 | 0.00 | 0.00 | 0.00 | 98 | 1010.9 |
| 20260510063630 | 57 | 114 | 0.0 | 0.9 | 0.00 | 0.00 | 0.00 | 97 | 1010.9 |
| 20260510063127 | 57 | 264 | 0.0 | 0.0 | 0.00 | 0.00 | 0.00 | 97 | 1010.9 |
| 20260510062622 | 57 | 261 | 0.0 | 0.0 | 0.00 | 0.00 | 0.00 | 97 | 1010.9 |
| 20260510062118 | 57 | 81 | 0.0 | 0.0 | 0.00 | 0.00 | 0.00 | 97 | 1010.9 |
| 20260510061614 | 57 | 157 | 0.0 | 2.6 | 0.00 | 0.00 | 0.00 | 97 | 1010.8 |
| 20260510061112 | 58 | 151 | 0.0 | 1.7 | 0.00 | 0.00 | 0.00 | 96 | 1011.0 |
| 20260510060608 | 58 | 160 | 0.0 | 1.7 | 0.00 | 0.00 | 0.00 | 96 | 1010.7 |
| 20260510060105 | 58 | 168 | 0.9 | 1.7 | 0.00 | 0.00 | 0.00 | 95 | 1010.7 |
| 20260510055600 | 59 | 148 | 0.0 | 0.0 | 0.00 | 0.00 | 0.00 | 95 | 1010.7 |
| 20260510055059 | 59 | 148 | 0.0 | 0.0 | 0.00 | 0.00 | 0.00 | 94 | 1010.9 |
| 20260510054555 | 59 | 151 | 0.0 | 0.9 | 0.00 | 0.00 | 0.00 | 94 | 1010.8 |
| 20260510054050 | 60 | 188 | 0.0 | 0.0 | 0.00 | 0.00 | 0.00 | 93 | 1010.8 |
| 20260510053549 | 60 | 172 | 0.0 | 0.0 | 0.00 | 0.00 | 0.00 | 93 | 1010.8 |
| 20260510053047 | 60 | 151 | 0.0 | 1.7 | 0.00 | 0.00 | 0.00 | 93 | 1010.8 |
| 20260510052542 | 60 | 90 | 0.0 | 0.0 | 0.00 | 0.00 | 0.00 | 91 | 1011.0 |
| 20260510052039 | 60 | 114 | 0.0 | 0.9 | 0.00 | 0.00 | 0.00 | 91 | 1011.0 |
| 20260510051534 | 61 | 143 | 0.0 | 1.7 | 0.00 | 0.00 | 0.00 | 91 | 1010.7 |
| 20260510051031 | 61 | 105 | 0.0 | 1.7 | 0.00 | 0.00 | 0.00 | 90 | 1010.6 |
| 20260510050528 | 61 | 60 | 0.0 | 2.6 | 0.00 | 0.00 | 0.00 | 90 | 1011.0 |
| 20260510050026 | 61 | 103 | 0.0 | 0.9 | 0.00 | 0.00 | 0.00 | 91 | 1010.9 |
| 20260510045523 | 60 | 60 | 0.0 | 0.0 | 0.00 | 0.00 | 0.00 | 92 | 1010.8 |
| 20260510045018 | 60 | 29 | 0.0 | 2.6 | 0.00 | 0.00 | 0.00 | 93 | 1010.7 |
| 20260510044515 | 59 | 140 | 0.0 | 1.7 | 0.00 | 0.00 | 0.00 | 94 | 1010.6 |
| 20260510044013 | 59 | 15 | 0.9 | 0.9 | 0.00 | 0.00 | 0.00 | 95 | 1010.6 |
| 20260510043508 | 59 | 90 | 0.9 | 0.9 | 0.00 | 0.00 | 0.00 | 97 | 1010.7 |
| 20260510043003 | 58 | 90 | 0.0 | 0.0 | 0.00 | 0.00 | 0.00 | 98 | 1010.7 |
| 20260510042458 | 58 | 114 | 0.0 | 0.9 | 0.00 | 0.00 | 0.00 | 98 | 1010.8 |
| 20260510041953 | 58 | 157 | 0.0 | 0.9 | 0.00 | 0.00 | 0.00 | 99 | 1010.8 |
| 20260510041450 | 58 | 83 | 0.0 | 0.0 | 0.00 | 0.00 | 0.00 | 99 | 1011.1 |
| 20260510040948 | 58 | 103 | 0.0 | 1.7 | 0.00 | 0.00 | 0.00 | 99 | 1010.7 |
| 20260510040444 | 58 | 126 | 0.0 | 0.9 | 0.00 | 0.00 | 0.00 | 99 | 1010.7 |
| 20260510035940 | 58 | 99 | 0.0 | 0.0 | 0.00 | 0.00 | 0.00 | 99 | 1010.8 |
| 20260510035436 | 58 | 151 | 0.0 | 0.0 | 0.00 | 0.00 | 0.00 | 99 | 1010.6 |
| 20260510034931 | 58 | 172 | 0.0 | 1.7 | 0.00 | 0.00 | 0.00 | 99 | 1010.5 |
| 20260510034430 | 58 | 151 | 0.0 | 0.0 | 0.00 | 0.00 | 0.00 | 99 | 1010.6 |
| 20260510033926 | 58 | 151 | 0.0 | 0.0 | 0.00 | 0.00 | 0.00 | 99 | 1010.6 |
| 20260510033422 | 58 | 151 | 0.0 | 0.0 | 0.00 | 0.00 | 0.00 | 99 | 1010.5 |
| 20260510032919 | 58 | 145 | 0.0 | 0.0 | 0.00 | 0.00 | 0.00 | 98 | 1010.6 |
| 20260510032416 | 58 | 114 | 0.0 | 0.9 | 0.00 | 0.00 | 0.00 | 98 | 1010.3 |
| 20260510031911 | 59 | 139 | 0.0 | 1.7 | 0.00 | 0.00 | 0.00 | 98 | 1010.6 |
| 20260510031406 | 59 | 157 | 0.0 | 0.0 | 0.00 | 0.00 | 0.00 | 98 | 1010.5 |
| 20260510030901 | 59 | 160 | 0.0 | 0.0 | 0.00 | 0.00 | 0.00 | 98 | 1010.4 |
| 20260510030357 | 59 | 160 | 0.0 | 0.0 | 0.00 | 0.00 | 0.00 | 98 | 1010.4 |
| 20260510025855 | 59 | 160 | 0.0 | 0.0 | 0.00 | 0.00 | 0.00 | 98 | 1010.4 |
| 20260510025353 | 59 | 160 | 0.0 | 0.9 | 0.00 | 0.00 | 0.00 | 98 | 1010.4 |
| 20260510024849 | 59 | 157 | 0.0 | 1.7 | 0.00 | 0.00 | 0.00 | 98 | 1010.3 |
| 20260510024346 | 59 | 157 | 0.9 | 0.9 | 0.00 | 0.00 | 0.00 | 98 | 1010.3 |
| 20260510023842 | 60 | 172 | 0.0 | 0.0 | 0.00 | 0.00 | 0.00 | 98 | 1010.3 |
| 20260510023339 | 60 | 172 | 0.0 | 0.0 | 0.00 | 0.00 | 0.00 | 97 | 1010.2 |
| 20260510022837 | 60 | 157 | 0.0 | 0.0 | 0.00 | 0.00 | 0.00 | 97 | 1010.3 |
| 20260510022335 | 60 | 157 | 0.0 | 0.0 | 0.00 | 0.00 | 0.00 | 97 | 1010.1 |
| 20260510021834 | 60 | 160 | 0.0 | 0.0 | 0.00 | 0.00 | 0.00 | 97 | 1009.9 |
| 20260510021333 | 60 | 172 | 0.0 | 0.0 | 0.00 | 0.00 | 0.00 | 96 | 1010.0 |
| 20260510020828 | 60 | 157 | 0.0 | 0.9 | 0.00 | 0.00 | 0.00 | 96 | 1010.0 |
| 20260510020323 | 61 | 157 | 0.0 | 0.0 | 0.00 | 0.00 | 0.00 | 96 | 1010.0 |
| 20260510015819 | 61 | 157 | 0.0 | 0.0 | 0.00 | 0.00 | 0.00 | 95 | 1009.9 |
| 20260510015315 | 61 | 157 | 0.0 | 0.0 | 0.00 | 0.00 | 0.00 | 95 | 1010.1 |
| 20260510014810 | 61 | 157 | 0.0 | 0.0 | 0.00 | 0.00 | 0.00 | 95 | 1009.9 |
| 20260510014308 | 61 | 157 | 0.0 | 0.0 | 0.00 | 0.00 | 0.00 | 95 | 1009.7 |
| 20260510013804 | 62 | 145 | 0.0 | 0.9 | 0.00 | 0.00 | 0.00 | 94 | 1009.7 |
| 20260510013259 | 62 | 157 | 0.0 | 0.0 | 0.00 | 0.00 | 0.00 | 93 | 1009.4 |
| 20260510012755 | 62 | 157 | 0.0 | 0.0 | 0.00 | 0.00 | 0.00 | 93 | 1009.5 |
| 20260510012250 | 62 | 157 | 0.9 | 0.9 | 0.00 | 0.00 | 0.00 | 91 | 1009.5 |
| 20260510011749 | 62 | 157 | 0.0 | 0.0 | 0.00 | 0.00 | 0.00 | 92 | 1009.4 |
| 20260510011245 | 63 | 157 | 0.0 | 0.0 | 0.00 | 0.00 | 0.00 | 92 | 1009.4 |
| 20260510010742 | 63 | 151 | 0.0 | 0.0 | 0.00 | 0.00 | 0.00 | 90 | 1009.4 |
| 20260510010239 | 63 | 151 | 0.0 | 0.0 | 0.00 | 0.00 | 0.00 | 90 | 1009.2 |
| 20260510005736 | 64 | 151 | 0.0 | 0.0 | 0.00 | 0.00 | 0.00 | 90 | 1009.5 |
| 20260510005232 | 64 | 172 | 0.0 | 0.0 | 0.00 | 0.00 | 0.00 | 89 | 1009.3 |
| 20260510004730 | 64 | 157 | 0.0 | 1.7 | 0.00 | 0.00 | 0.00 | 87 | 1009.2 |
| 20260510004228 | 65 | 106 | 0.0 | 0.0 | 0.00 | 0.00 | 0.00 | 86 | 1009.1 |
| 20260510003725 | 66 | 106 | 0.0 | 0.0 | 0.00 | 0.00 | 0.00 | 85 | 1008.8 |
| 20260510003221 | 66 | 157 | 0.0 | 0.0 | 0.00 | 0.00 | 0.00 | 82 | 1009.0 |
| 20260510002720 | 66 | 157 | 0.0 | 0.9 | 0.00 | 0.00 | 0.00 | 83 | 1009.1 |
| 20260510002217 | 67 | 172 | 0.0 | 0.0 | 0.00 | 0.00 | 0.00 | 79 | 1009.0 |
| 20260510001714 | 68 | 254 | 0.0 | 0.9 | 0.00 | 0.00 | 0.00 | 77 | 1008.9 |
| 20260510001213 | 68 | 97 | 0.0 | 0.0 | 0.00 | 0.00 | 0.00 | 76 | 1009.0 |
| 20260510000708 | 69 | 279 | 0.0 | 0.0 | 0.00 | 0.00 | 0.00 | 75 | 1008.8 |
| 20260510000206 | 69 | 279 | 0.0 | 0.0 | 0.00 | 0.00 | 0.00 | 75 | 1008.9 |
| 20260509235702 | 69 | 262 | 1.7 | 2.6 | 0.00 | 0.00 | 0.00 | 74 | 1008.9 |
| 20260509235158 | 70 | 297 | 0.0 | 0.9 | 0.00 | 0.00 | 0.00 | 73 | 1008.8 |
| 20260509234655 | 70 | 337 | 0.0 | 0.9 | 0.00 | 0.00 | 0.00 | 73 | 1008.8 |
| 20260509234152 | 70 | 345 | 0.0 | 1.7 | 0.00 | 0.00 | 0.00 | 73 | 1008.6 |
| 20260509233650 | 71 | 270 | 0.0 | 0.9 | 0.00 | 0.00 | 0.00 | 71 | 1008.5 |
| 20260509233147 | 72 | 262 | 0.0 | 0.0 | 0.00 | 0.00 | 0.00 | 70 | 1008.6 |
| 20260509232643 | 72 | 255 | 0.0 | 1.7 | 0.00 | 0.00 | 0.00 | 68 | 1008.5 |
| 20260509232140 | 73 | 276 | 0.0 | 2.6 | 0.00 | 0.00 | 0.00 | 66 | 1008.5 |
| 20260509231637 | 74 | 270 | 0.0 | 1.7 | 0.00 | 0.00 | 0.00 | 61 | 1008.7 |
| 20260509231134 | 74 | 270 | 2.6 | 2.6 | 0.00 | 0.00 | 0.00 | 60 | 1008.6 |
| 20260509230631 | 74 | 98 | 0.0 | 1.7 | 0.00 | 0.00 | 0.00 | 60 | 1008.4 |
| 20260509230128 | 74 | 283 | 0.9 | 2.6 | 0.00 | 0.00 | 0.00 | 59 | 1008.4 |
| 20260509225624 | 74 | 270 | 0.0 | 0.9 | 0.00 | 0.00 | 0.00 | 59 | 1008.4 |
| 20260509225119 | 75 | 8 | 0.0 | 1.7 | 0.00 | 0.00 | 0.00 | 59 | 1008.4 |
| 20260509224614 | 75 | 270 | 0.0 | 1.7 | 0.00 | 0.00 | 0.00 | 58 | 1008.1 |
| 20260509224112 | 75 | 337 | 0.0 | 0.0 | 0.00 | 0.00 | 0.00 | 59 | 1008.4 |
| 20260509223609 | 75 | 337 | 0.0 | 1.7 | 0.00 | 0.00 | 0.00 | 58 | 1008.4 |
| 20260509223107 | 75 | 261 | 0.0 | 0.0 | 0.00 | 0.00 | 0.00 | 57 | 1008.6 |
| 20260509222602 | 75 | 253 | 1.7 | 1.7 | 0.00 | 0.00 | 0.00 | 56 | 1008.6 |
| 20260509222058 | 76 | 285 | 0.0 | 1.7 | 0.00 | 0.00 | 0.00 | 55 | 1008.6 |
| 20260509221554 | 76 | 353 | 0.0 | 2.6 | 0.00 | 0.00 | 0.00 | 54 | 1008.6 |
| 20260509221050 | 76 | 337 | 0.0 | 3.5 | 0.00 | 0.00 | 0.00 | 55 | 1008.5 |
| 20260509220546 | 76 | 0 | 0.0 | 1.7 | 0.00 | 0.00 | 0.00 | 54 | 1008.6 |
| 20260509220043 | 76 | 15 | 0.9 | 1.7 | 0.00 | 0.00 | 0.00 | 54 | 1008.5 |
| 20260509215538 | 76 | 276 | 0.0 | 3.5 | 0.00 | 0.00 | 0.00 | 55 | 1008.8 |
| 20260509215036 | 76 | 151 | 0.9 | 1.7 | 0.00 | 0.00 | 0.00 | 56 | 1008.6 |
| 20260509214533 | 76 | 289 | 0.0 | 4.3 | 0.00 | 0.00 | 0.00 | 54 | 1008.6 |
| 20260509214030 | 77 | 254 | 4.3 | 5.2 | 0.00 | 0.00 | 0.00 | 53 | 1008.5 |
| 20260509213526 | 77 | 18 | 0.0 | 2.6 | 0.00 | 0.00 | 0.00 | 55 | 1008.3 |
| 20260509213023 | 77 | 345 | 0.0 | 2.6 | 0.00 | 0.00 | 0.00 | 55 | 1008.6 |
| 20260509212520 | 77 | 291 | 0.9 | 2.6 | 0.00 | 0.00 | 0.00 | 54 | 1008.7 |
| 20260509212017 | 77 | 19 | 3.5 | 3.5 | 0.00 | 0.00 | 0.00 | 54 | 1008.4 |
| 20260509211512 | 76 | 303 | 1.7 | 5.2 | 0.00 | 0.00 | 0.00 | 55 | 1008.2 |
| 20260509211009 | 76 | 0 | 0.0 | 3.5 | 0.00 | 0.00 | 0.00 | 56 | 1008.3 |
| 20260509210506 | 76 | 282 | 1.7 | 4.3 | 0.00 | 0.00 | 0.00 | 56 | 1008.5 |
| 20260509210002 | 76 | 352 | 1.7 | 4.3 | 0.00 | 0.00 | 0.00 | 55 | 1008.4 |
| 20260509205456 | 76 | 278 | 1.7 | 2.6 | 0.00 | 0.00 | 0.00 | 55 | 1008.6 |
| 20260509204952 | 76 | 307 | 0.0 | 3.5 | 0.00 | 0.00 | 0.00 | 56 | 1008.4 |
| 20260509204449 | 76 | 294 | 0.9 | 7.0 | 0.00 | 0.00 | 0.00 | 57 | 1008.1 |
| 20260509203945 | 76 | 310 | 2.6 | 4.3 | 0.00 | 0.00 | 0.00 | 57 | 1008.4 |
| 20260509203441 | 76 | 270 | 0.0 | 3.5 | 0.00 | 0.00 | 0.00 | 58 | 1008.3 |
| 20260509202939 | 76 | 270 | 3.5 | 4.3 | 0.00 | 0.00 | 0.00 | 57 | 1008.4 |
| 20260509202435 | 75 | 152 | 2.6 | 2.6 | 0.00 | 0.00 | 0.00 | 59 | 1008.2 |
| 20260509201930 | 75 | 161 | 1.7 | 2.6 | 0.00 | 0.00 | 0.00 | 58 | 1008.4 |
| 20260509201425 | 75 | 154 | 1.7 | 2.6 | 0.00 | 0.00 | 0.00 | 60 | 1008.4 |
| 20260509200923 | 75 | 342 | 0.0 | 0.9 | 0.00 | 0.00 | 0.00 | 59 | 1008.8 |
| 20260509200422 | 75 | 69 | 0.0 | 3.5 | 0.00 | 0.00 | 0.00 | 59 | 1008.8 |
| 20260509195919 | 75 | 164 | 0.0 | 4.3 | 0.00 | 0.00 | 0.00 | 61 | 1008.8 |
| 20260509195415 | 74 | 203 | 0.0 | 3.5 | 0.00 | 0.00 | 0.00 | 61 | 1009.1 |
| 20260509194914 | 73 | 135 | 1.7 | 4.3 | 0.00 | 0.00 | 0.00 | 62 | 1008.9 |
| 20260509194411 | 72 | 154 | 1.7 | 2.6 | 0.00 | 0.00 | 0.00 | 65 | 1009.0 |
| 20260509193908 | 71 | 126 | 0.9 | 0.9 | 0.00 | 0.00 | 0.00 | 72 | 1009.1 |
| 20260509193407 | 69 | 151 | 0.0 | 0.0 | 0.00 | 0.00 | 0.00 | 71 | 1009.4 |
| 20260509192904 | 70 | 160 | 0.9 | 0.9 | 0.00 | 0.00 | 0.00 | 72 | 1009.3 |
| 20260509192400 | 71 | 172 | 0.0 | 0.0 | 0.00 | 0.00 | 0.00 | 68 | 1009.4 |
| 20260509191855 | 71 | 180 | 0.0 | 0.9 | 0.00 | 0.00 | 0.00 | 68 | 1009.4 |
| 20260509191351 | 71 | 159 | 0.0 | 1.7 | 0.00 | 0.00 | 0.00 | 66 | 1009.4 |
| 20260509190848 | 71 | 157 | 0.0 | 0.9 | 0.00 | 0.00 | 0.00 | 65 | 1009.7 |
| 20260509190344 | 71 | 173 | 0.0 | 0.0 | 0.00 | 0.00 | 0.00 | 66 | 1009.6 |
| 20260509185842 | 71 | 165 | 0.0 | 0.0 | 0.00 | 0.00 | 0.00 | 65 | 1009.7 |
| 20260509185338 | 71 | 160 | 0.0 | 0.9 | 0.00 | 0.00 | 0.00 | 65 | 1009.6 |
| 20260509184836 | 71 | 338 | 2.6 | 2.6 | 0.00 | 0.00 | 0.00 | 61 | 1009.8 |
| 20260509184332 | 73 | 106 | 0.0 | 1.7 | 0.00 | 0.00 | 0.00 | 60 | 1009.8 |
| 20260509183829 | 73 | 26 | 0.0 | 2.6 | 0.00 | 0.00 | 0.00 | 56 | 1009.7 |
| 20260509183324 | 73 | 106 | 0.0 | 3.5 | 0.00 | 0.00 | 0.00 | 58 | 1009.3 |
| 20260509182821 | 74 | 82 | 0.0 | 4.3 | 0.00 | 0.00 | 0.00 | 55 | 1009.8 |
| 20260509182318 | 74 | 160 | 0.0 | 2.6 | 0.00 | 0.00 | 0.00 | 57 | 1009.9 |
| 20260509181815 | 74 | 130 | 2.6 | 6.1 | 0.00 | 0.00 | 0.00 | 54 | 1010.1 |
| 20260509181312 | 75 | 334 | 0.9 | 4.3 | 0.00 | 0.00 | 0.00 | 53 | 1010.1 |
| 20260509180810 | 76 | 326 | 1.7 | 3.5 | 0.00 | 0.00 | 0.00 | 53 | 1010.3 |
| 20260509180306 | 77 | 285 | 2.6 | 4.3 | 0.00 | 0.00 | 0.00 | 53 | 1010.2 |
| 20260509175802 | 76 | 53 | 2.6 | 4.3 | 0.00 | 0.00 | 0.00 | 53 | 1010.3 |
| 20260509175259 | 76 | 280 | 3.5 | 8.7 | 0.00 | 0.00 | 0.00 | 51 | 1010.3 |
| 20260509174755 | 75 | 186 | 0.0 | 2.6 | 0.00 | 0.00 | 0.00 | 55 | 1010.1 |
| 20260509174250 | 73 | 150 | 0.0 | 4.3 | 0.00 | 0.00 | 0.00 | 55 | 1010.6 |
| 20260509173746 | 74 | 4 | 0.0 | 4.3 | 0.00 | 0.00 | 0.00 | 55 | 1010.6 |
| 20260509173242 | 74 | 348 | 0.0 | 3.5 | 0.00 | 0.00 | 0.00 | 55 | 1010.7 |
| 20260509172738 | 74 | 138 | 2.6 | 6.1 | 0.00 | 0.00 | 0.00 | 55 | 1010.4 |
| 20260509172235 | 74 | 21 | 2.6 | 4.3 | 0.00 | 0.00 | 0.00 | 54 | 1010.6 |
| 20260509171730 | 74 | 307 | 2.6 | 2.6 | 0.00 | 0.00 | 0.00 | 56 | 1010.6 |
| 20260509171227 | 74 | 157 | 0.0 | 1.7 | 0.00 | 0.00 | 0.00 | 56 | 1010.8 |
| 20260509170724 | 73 | 265 | 1.7 | 2.6 | 0.00 | 0.00 | 0.00 | 56 | 1010.6 |
| 20260509170220 | 73 | 291 | 5.2 | 5.2 | 0.00 | 0.00 | 0.00 | 56 | 1010.7 |
| 20260509165718 | 74 | 346 | 2.6 | 2.6 | 0.00 | 0.00 | 0.00 | 55 | 1010.7 |
| 20260509165214 | 74 | 8 | 0.0 | 3.5 | 0.00 | 0.00 | 0.00 | 55 | 1010.6 |
| 20260509164710 | 74 | 24 | 1.7 | 4.3 | 0.00 | 0.00 | 0.00 | 55 | 1010.6 |